Regional Weather Roundup
Issued by NWS

Home | Current Version | Previous Version | Text Only | Print | Product List | Glossary Off
Versions: 1 2 3 4 5 6 7 8 9 10 11 12 13 14 15 16 17 18 19 20 21 22 23 24 25 26 27

000
ASUS45 KCYS 192310
RWRWY

WYOMING REGIONAL WEATHER ROUNDUP
NATIONAL WEATHER SERVICE CHEYENNE WY
400 PM MST SUN FEB 19 2017

NOTE:  "FAIR" INDICATES FEW OR NO CLOUDS BELOW 12,000 FEET
WITH NO SIGNIFICANT WEATHER AND/OR OBSTRUCTIONS TO VISIBILITY.

WYZ001-200000-
YELLOWSTONE NATIONAL PARK

CITY           SKY/WX    TMP DP  RH WIND       PRES   REMARKS
LK YELLOWSTONE   N/A     29  25  85 W9        29.67R WCI  20
W YELLOWSTONE  NOT AVBL

$$
WYZ002>013-054>058-071-098>099-200000-
NORTHERN WYOMING

CITY           SKY/WX    TMP DP  RH WIND       PRES   REMARKS
JACKSON        FLURRIES  36  30  80 W13       29.68R WCI  27
CODY           FAIR      51  23  33 N8G17     29.57R
GREYBULL       PTSUNNY   43  35  73 N10       29.52R
WORLAND        FAIR      44  37  76 NE6       29.51R
SHERIDAN       PTSUNNY   46  33  60 SE7       29.49R
BUFFALO        FAIR      56  29  35 NW5       29.49R
GILLETTE       CLOUDY    57  32  38 SW24G30   29.47R
HULETT         FAIR      59  32  36 SW16G23   29.49S
NEWCASTLE      FAIR      55  30  38 SW5       29.55S

$$
WYZ014>020-022>026-101>103-200000-
CENTRAL WYOMING

CITY           SKY/WX    TMP DP  RH WIND       PRES   REMARKS
BIG PINEY      PTSUNNY   35  26  69 N7        29.71R WCI  29
PINEDALE       FAIR      32  27  80 NW7       29.71R WCI  26
DUBOIS         MOCLDY    34  27  75 NW16      29.64R WCI  23
LANDER         FAIR      51  23  33 SW9       29.56R
RIVERTON       FAIR      45  32  60 NW8       29.57R
CASPER         FAIR      51  33  50 SW23G31   29.58S
DOUGLAS        CLOUDY    52  32  46 SW17      29.61R

$$
WYZ021-027>030-104>119-200000-
SOUTHERN WYOMING

CITY           SKY/WX    TMP DP  RH WIND       PRES   REMARKS
EVANSTON       PTSUNNY   35  30  82 SW9       29.76R WCI  28
KEMMERER         N/A     36  28  75 W9        29.74R WCI  29
FORT BRIDGER   FAIR      38  36  91 SW13      29.77R WCI  30
ROCK SPRINGS   CLOUDY    35  32  88 SW14      29.73R WCI  26
DIXON          LGT RAIN  39  36  89 S12G18    29.75S WCI  32
RAWLINS        MIX PCPN  35  32  88 SW9       29.71R WCI  28
SARATOGA       CLOUDY    41  32  70 SE3       29.70S
LARAMIE        CLOUDY    43  29  57 SW6       29.67R
CHEYENNE       FAIR      55  23  28 S3        29.60S
TORRINGTON     FAIR      59  28  30 SE9       29.57R
PINE BLUFFS    FAIR      55  27  33 S8        29.58F

$$




USA.gov is the U.S. government's official web portal to all federal, state and local government web resources and services.